Location: Chuathbaluk
(61.5726°N, 159.2454°W)
Time: 02:37:43
(UTC+00:00)

Altair - Pass Details

Date: 05 December 2020
Orbit: 1501 x 1682 km, 47.2° (Epoch: 23 January)

Event Time Altitude Azimuth Distance (km) Brightness Sun altitude
Rises 04:00:35 0° 178° (S) 4,748 10.3 -16.5°
Reaches altitude 10° 04:06:33 10° 150° (SSE) 3,725 9.4 -17.2°
Maximum altitude 04:09:24 12° 131° (SE) 3,572 9.1 -17.5°
Enters shadow 04:11:31 11° 118° (ESE) 3,638 9.0 -17.7°
